Home > Weather > Hanau > Past weeks

Flag for Germany Weather for the Past 2 Weeks in Hanau, Hesse, Germany

Now
41 °F

Sunny.


Feels Like: 36 °F
Forecast: 38 / 54 °F
Wind: 7 mph from Southwest

Location: Frankfurt-M-Flughafen Airport

Current Time: Apr 29, 2016 at 8:38:38 AM

Latest Report: Apr 29, 2016 at 8:20 AM


Visibility: 10 mi

Pressure: 30.07 "Hg

Humidity: 76%

Dew Point: 34 °F

Location of HanauLocation

Historic Weather in Hanau — Graph

°F

Hanau Temperature Yesterday

Maximum temperature yesterday: 54 °F (at 4:20 PM)
Minimum temperature yesterday: 32 °F (at 4:20 AM)
Average temperature yesterday: 42 °F

High & Low Weather Summary for the Past Weeks

 TemperatureHumidityPressure
High70 °F (Apr 21, 4:50 PM)100% (Apr 14, 6:20 AM)30.45 "Hg (Apr 14, 6:20 AM)
Low30 °F (Apr 24, 4:50 AM)22% (Apr 20, 5:50 PM)29.56 "Hg (Apr 26, 12:20 AM)
Average47 °F65%29.94 "Hg
* Reported Apr 14 6:20 AM — Apr 29 6:50 AM, Hanau, Weather by CustomWeather, © 2016

Note: Actual official high and low records may vary slightly from our data, if they occured in-between our weather recording intervals... More about our weather records

Advertising

Hanau Weather History for the Previous 24 Hours

Scroll right to see more
 ConditionsComfort  
Time TempWeatherWind HumidityBarometerVisibility
6:50 AM
Fri, Apr 29
30 °FFog.2 mph93%30.04 "HgN/A
6:20 AM30 °FFog.1 mph93%30.04 "HgN/A
5:50 AM30 °FFog.2 mph93%30.04 "HgN/A
5:20 AM30 °FFog.1 mph93%30.04 "HgN/A
4:20 AM30 °FFog.1 mph93%30.04 "HgN/A
3:50 AM30 °FFog.2 mph93%30.04 "HgN/A
3:20 AM32 °FFog.2 mph93%30.04 "HgN/A
2:50 AM32 °FFog.1 mph93%30.04 "HgN/A
2:20 AM32 °FFog.2 mph93%30.04 "HgN/A
1:50 AM34 °FFog.1 mph93%30.04 "HgN/A
1:20 AM34 °FFog.1 mph93%30.04 "HgN/A
12:50 AM34 °FClear.2 mph93%30.04 "Hg10 mi
12:20 AM34 °FClear.3 mph93%30.04 "Hg10 mi
11:50 PM
Thu, Apr 28
34 °FClear.1 mph93%30.04 "Hg10 mi
11:20 PM36 °FClear.1 mph93%30.04 "Hg10 mi
10:50 PM37 °FFog.2 mph87%30.01 "HgN/A
10:20 PM37 °FFog.3 mph87%30.01 "HgN/A
9:50 PM37 °FFog.5 mph93%30.01 "HgN/A
9:20 PM39 °FSunny.2 mph87%30.01 "Hg10 mi
8:50 PM41 °FSunny.2 mph87%30.01 "Hg10 mi
8:20 PM43 °FScattered showers. Passing clouds.5 mph81%30.01 "HgN/A
7:50 PM45 °FPassing clouds.10 mph76%30.01 "HgN/A
7:20 PM45 °FSprinkles. Scattered clouds.21 mph71%30.01 "HgN/A
6:50 PM50 °FPassing clouds.13 mph40%29.98 "HgN/A
6:20 PM52 °FSunny.14 mph35%29.98 "Hg10 mi
5:50 PM54 °FPassing clouds.10 mph30%29.98 "HgN/A
5:20 PM52 °FSunny.12 mph35%29.98 "Hg10 mi
4:50 PM52 °FPassing clouds.13 mph35%29.98 "HgN/A
4:20 PM54 °FPassing clouds.12 mph38%29.98 "HgN/A
3:50 PM52 °FSunny.6 mph32%29.98 "Hg10 mi
3:20 PM52 °FPassing clouds.10 mph32%29.98 "HgN/A
2:20 PM50 °FScattered clouds.7 mph40%29.98 "HgN/A
1:50 PM46 °FSprinkles. Scattered clouds.16 mph57%29.98 "HgN/A
1:20 PM48 °FScattered showers. Scattered clouds.6 mph40%29.98 "HgN/A
12:50 PM48 °FScattered clouds.9 mph43%29.98 "HgN/A
12:20 PM48 °FScattered clouds.6 mph54%29.98 "HgN/A
11:50 AM46 °FScattered clouds.5 mph50%29.98 "HgN/A
11:20 AM45 °FPassing clouds.5 mph57%29.98 "HgN/A
10:20 AM43 °FPassing clouds.6 mph66%29.98 "HgN/A
9:20 AM41 °FPassing clouds.6 mph76%29.98 "HgN/A
Weather by CustomWeather, © 2016

See weather overviewHow to use our weather pages